Theta_e
305 305 307 307 305 307 308 309 309 308 309 310 309 309 308 309 308 307 308 309 309 310 311 311 312 312 314 313 314 320 333 338 346 344 341 339 338 337 336 335 336 340 340 340
304 306 306 307 307 307 307 307 310 309 310 311 309 309 308 308 308 308 308 308 308 308 309 310 310 311 311 312 313 314 319 324 336 342 343 343 343 343 342 341 340 342 343 343
305 306 307 308 310 310 310 311 312 311 311 308 308 306 307 308 308 308 308 307 307 307 307 308 309 310 312 312 314 314 314 315 319 329 337 340 342 342 343 345 344 343 343 346
305 306 308 307 309 310 310 311 312 310 309 308 309 309 307 307 306 307 306 304 305 308 310 310 311 311 313 314 315 315 315 315 315 318 330 336 339 341 340 341 342 341 343 345
307 306 307 307 309 310 308 311 310 310 309 308 307 307 306 306 307 307 306 307 310 311 310 310 310 311 311 313 314 316 316 316 316 317 325 333 337 337 338 340 341 342 343 343
304 305 306 307 311 310 308 308 305 304 306 307 307 308 306 306 308 307 309 310 310 310 310 309 309 310 310 311 312 316 316 317 316 316 320 330 338 339 340 340 340 341 341 340
307 306 309 310 309 307 305 304 306 306 305 307 306 308 306 306 307 307 312 312 310 309 308 308 307 308 309 310 311 314 316 316 318 319 318 324 335 339 340 338 338 339 336 335
308 308 310 312 309 308 307 305 307 310 310 305 306 308 307 307 307 309 311 311 311 310 308 306 306 307 309 310 311 313 315 314 319 326 322 321 329 337 339 337 336 339 336 333
311 311 309 310 309 307 308 308 305 307 306 306 307 307 307 308 308 309 311 311 309 309 307 306 306 307 308 310 311 313 314 315 320 325 326 323 329 335 336 337 337 337 336 333
310 312 311 310 309 308 307 306 308 305 312 313 309 308 309 307 307 307 310 309 308 308 306 307 307 309 311 310 311 314 313 314 317 323 328 323 326 333 334 335 334 334 333 331
310 311 311 311 310 308 307 309 309 305 305 308 308 309 306 308 308 309 307 307 308 308 307 306 307 310 310 311 312 313 312 313 317 322 331 322 326 330 333 334 334 332 331 331
311 311 313 312 309 308 306 308 308 305 307 313 312 312 309 307 306 307 307 308 310 310 308 307 308 310 312 316 317 314 312 316 320 326 334 324 324 329 331 332 332 332 333 335
312 310 313 310 307 306 311 311 308 307 307 312 314 312 307 308 308 308 307 309 310 310 308 308 311 314 314 315 317 318 318 320 321 336 335 322 324 330 331 331 332 334 336 339
312 310 312 311 308 305 310 310 310 311 315 312 313 312 311 310 310 308 310 310 309 309 313 315 314 312 313 314 315 318 320 321 322 338 333 325 326 329 331 333 335 336 339 341
309 312 311 310 311 312 312 312 312 313 313 315 313 313 312 312 310 310 310 309 309 309 309 313 312 313 314 313 314 315 321 323 322 339 334 332 332 333 335 337 338 339 340 342
306 308 310 312 312 312 312 311 311 311 312 313 313 313 311 311 310 310 309 309 310 310 310 311 310 311 313 314 314 314 315 323 323 337 338 339 339 338 339 341 341 341 341 341
309 308 309 311 311 312 313 312 311 311 313 313 314 313 311 310 312 311 310 310 309 309 311 309 310 310 310 312 313 313 314 321 325 335 340 341 340 339 339 341 340 339 340 340
305 306 309 311 311 315 309 312 312 313 313 312 311 311 311 311 310 311 310 309 309 309 308 308 310 309 309 310 311 313 314 324 325 336 337 339 339 339 338 337 338 336 338 338
305 308 313 315 311 309 310 312 313 312 313 312 311 311 311 312 311 310 308 308 307 307 307 308 309 308 308 310 311 313 320 326 325 334 338 338 338 337 336 334 333 335 336 334
310 309 313 313 310 305 309 313 311 310 315 312 312 312 313 311 312 309 306 306 307 307 306 307 307 307 309 310 311 315 323 324 326 331 338 336 335 335 334 332 331 331 333 329
312 312 313 314 314 309 310 312 310 313 312 311 312 312 310 308 307 306 305 306 306 306 306 306 306 309 310 311 313 316 323 324 326 335 336 334 332 332 332 330 329 329 327 326
305 310 310 312 313 312 311 312 314 310 312 312 311 308 305 304 305 305 307 307 307 307 307 307 309 310 312 314 317 318 323 325 326 335 334 331 330 331 330 329 326 326 325 324
306 306 304 305 304 303 308 309 309 312 312 308 307 304 304 306 306 306 307 308 308 308 309 309 310 312 315 317 318 325 323 326 329 333 332 331 330 330 329 327 325 324 325 323
306 305 307 308 306 307 309 309 310 309 307 305 303 305 306 307 308 307 307 308 308 309 310 311 312 314 316 320 323 325 325 327 331 331 331 330 330 329 328 327 326 325 324 323
307 307 306 307 307 309 310 310 310 306 304 304 306 306 307 307 307 307 307 308 309 310 311 311 313 315 317 320 324 325 326 330 330 330 330 329 329 328 326 326 326 325 325 325
307 308 311 311 309 310 311 309 307 304 304 304 306 306 305 306 306 307 308 309 310 311 312 314 315 317 319 322 326 328 327 329 330 329 328 328 326 323 322 322 322 325 326 327
Wind_Speed
3 4 3 7 7 2 1 3 3 4 3 6 8 10 8 7 6 8 7 7 8 3 4 9 11 20 18 21 22 23 26 26 28 30 30 32 35 38 37 42 37 39 35 30
5 1 4 3 3 4 4 2 2 4 5 3 9 18 14 8 6 6 7 8 8 5 3 6 15 14 15 20 21 20 21 28 29 31 30 28 26 26 35 39 42 40 35 28
4 4 1 1 2 3 2 3 2 5 4 5 6 6 2 4 4 4 7 7 7 7 8 4 5 15 17 16 19 20 21 22 25 31 33 26 28 22 18 30 37 40 36 28
4 3 3 2 3 4 2 5 3 2 4 3 4 6 2 1 5 3 8 9 9 8 7 6 5 9 20 22 20 19 22 21 26 25 29 35 31 27 34 34 37 34 29 27
5 4 3 1 2 4 4 2 1 1 2 1 4 1 7 5 3 4 9 8 8 9 8 9 9 13 24 25 24 22 21 22 25 23 26 32 31 32 34 36 34 30 28 29
7 2 4 5 3 2 2 3 4 3 2 2 5 3 4 3 4 8 7 9 7 8 9 9 14 18 21 29 26 24 22 24 23 23 25 30 32 29 33 31 33 32 28 27
2 1 3 2 4 3 6 6 4 5 3 4 2 5 7 8 10 9 9 10 10 7 7 8 11 13 22 24 29 28 21 28 27 25 26 27 35 35 37 36 35 31 26 26
5 3 4 2 4 5 3 6 4 4 3 4 3 7 7 6 9 8 8 9 10 12 8 7 10 11 21 26 25 29 28 29 28 27 27 27 34 34 36 34 36 36 35 32
4 3 2 1 3 7 2 3 3 1 2 3 5 8 11 13 9 8 10 6 10 13 12 10 11 12 19 24 26 27 30 31 27 28 28 28 33 37 36 41 40 38 37 29
2 2 2 2 3 0 5 6 2 2 2 5 4 7 11 11 15 6 7 9 15 14 10 11 9 11 23 25 28 31 30 31 30 27 27 30 32 36 39 38 35 34 30 22
3 3 3 1 5 7 1 2 4 3 4 4 3 7 6 6 8 5 7 12 16 17 13 9 9 17 20 25 28 29 30 29 30 26 26 29 32 33 34 35 34 30 24 24
4 4 4 8 3 3 5 7 6 4 5 4 3 14 3 13 5 6 8 10 13 13 12 9 8 11 13 25 28 28 29 29 30 25 24 28 32 32 33 33 30 26 27 27
4 1 1 5 1 3 3 4 4 3 2 11 7 11 2 6 9 11 10 8 9 12 12 9 7 7 8 20 28 29 29 29 32 23 21 24 30 31 32 30 29 27 27 29
2 5 6 6 4 4 3 7 6 5 5 9 13 27 20 16 15 10 7 6 9 10 8 6 9 11 12 16 23 30 33 30 32 21 16 24 30 33 32 30 28 27 29 30
6 8 7 8 9 7 11 17 18 15 18 12 21 19 24 16 13 8 6 7 12 14 14 6 9 12 14 15 25 29 32 31 31 20 16 22 24 24 25 24 26 28 29 30
1 2 4 4 8 12 17 19 19 20 20 19 22 23 18 8 5 6 8 11 16 15 14 10 14 16 18 14 23 29 34 31 29 17 14 14 18 20 21 21 24 25 26 27
3 3 1 5 1 6 9 15 12 7 7 8 8 13 2 6 6 7 11 15 16 14 11 13 15 15 16 20 30 29 35 34 26 16 13 15 20 21 20 21 23 25 28 31
6 5 3 4 2 5 5 4 5 7 7 8 10 11 4 5 8 11 12 15 16 11 13 17 16 16 26 26 28 30 34 28 19 12 13 15 20 23 24 24 25 26 32 32
10 5 3 3 4 7 7 2 1 4 7 5 9 6 6 11 15 17 12 11 10 12 17 18 24 27 28 28 26 26 28 22 16 12 15 18 22 24 26 25 26 31 33 31
5 8 3 1 1 5 4 3 5 4 9 4 5 10 18 12 15 17 10 19 20 20 19 18 27 29 27 31 25 24 21 17 14 15 20 23 25 29 27 28 29 30 33 31
3 3 8 6 5 7 4 5 2 1 3 9 15 17 12 16 16 25 22 20 18 21 20 25 27 23 28 30 24 21 19 15 16 16 20 23 25 28 33 32 33 34 32 31
3 3 3 3 3 7 2 1 3 4 16 18 9 19 16 17 22 20 21 21 21 20 20 24 19 21 27 27 23 20 15 16 14 21 25 25 26 29 28 38 30 33 32 26
3 4 3 7 5 5 3 7 7 13 12 13 19 13 15 20 21 21 20 20 19 20 18 23 18 21 25 27 21 16 12 13 9 18 25 27 26 28 29 32 29 27 28 22
4 3 4 2 6 7 6 7 11 7 11 14 14 16 16 22 18 20 20 18 17 18 17 21 18 16 17 24 16 18 14 15 13 22 21 27 28 26 27 28 30 27 19 19
6 3 4 7 12 11 13 10 13 7 10 16 17 17 19 17 19 19 18 18 17 17 18 21 15 14 18 23 11 10 13 16 15 24 26 26 28 27 26 24 21 24 22 26
2 3 3 4 14 15 14 14 9 7 19 19 21 17 17 16 18 18 16 16 16 17 20 16 17 19 24 21 16 13 16 18 17 18 24 24 23 23 26 26 22 19 19 17
Wind_Direction
10 74 211 251 209 175 110 186 230 285 348 9 291 288 284 271 271 282 283 297 299 267 267 312 317 329 333 336 332 306 277 257 235 219 215 226 231 235 238 240 245 246 240 237
23 211 212 269 164 182 180 175 231 288 285 301 277 294 286 217 232 217 263 284 280 279 286 315 320 324 322 321 324 321 303 279 257 241 225 217 227 241 246 244 244 242 244 237
163 240 4 96 109 132 155 160 222 237 311 291 314 281 90 279 253 301 286 267 283 287 303 294 302 313 316 314 317 316 307 302 285 260 235 222 222 228 230 235 241 242 244 237
219 261 155 133 201 141 196 202 215 261 31 291 37 286 260 120 268 277 304 297 286 297 307 297 303 293 308 309 308 306 301 298 291 276 243 230 226 227 236 244 246 248 244 237
259 182 226 358 212 176 202 160 332 294 240 103 280 290 277 309 330 330 311 276 276 286 284 299 302 301 311 313 312 312 304 297 287 282 258 236 231 235 238 238 242 244 243 236
248 244 182 201 116 101 77 40 34 51 76 20 260 184 244 241 226 315 307 307 270 285 304 309 304 313 309 316 313 314 310 303 294 283 271 243 234 231 230 231 231 229 230 227
259 211 303 135 108 48 73 52 340 345 3 234 285 294 244 248 278 269 255 285 299 294 290 294 304 310 312 308 307 310 303 303 302 291 278 258 237 233 234 230 231 226 225 228
174 304 167 179 145 188 189 152 158 244 229 245 1 251 252 221 237 267 240 265 296 297 288 280 282 286 299 304 301 305 302 301 299 295 280 263 248 232 232 233 231 229 231 234
155 270 308 185 176 137 170 174 192 154 8 32 229 290 293 281 284 272 268 308 293 286 296 298 300 291 293 300 295 297 299 299 295 289 279 261 246 229 225 232 233 232 233 230
177 304 276 312 80 286 159 161 86 21 258 259 258 254 238 301 292 300 308 298 308 303 289 297 309 305 312 303 295 305 298 296 297 286 277 259 243 235 229 230 230 229 227 227
162 183 266 279 198 199 167 170 75 132 155 202 300 264 220 239 259 291 306 313 314 308 297 287 296 304 303 313 302 305 300 294 294 283 276 256 244 236 230 229 229 227 227 220
190 163 224 234 270 226 170 192 156 137 244 216 216 262 340 279 302 313 312 316 320 316 287 283 288 297 319 337 322 312 301 299 295 283 272 247 238 232 223 223 223 221 218 212
183 239 283 316 19 357 162 181 185 184 129 233 247 267 275 339 316 312 315 309 310 319 309 306 311 311 323 335 329 316 307 302 298 288 262 236 225 219 215 215 215 213 207 203
196 190 206 225 233 153 282 258 222 215 245 271 234 274 278 288 289 296 298 300 300 298 296 300 309 316 320 332 323 311 304 309 301 288 252 225 210 209 209 209 205 199 198 194
181 226 206 236 249 269 259 262 260 244 249 246 275 273 281 290 287 278 277 291 299 306 310 299 312 307 303 325 315 312 301 308 308 291 239 215 200 198 191 188 186 188 187 187
36 268 171 256 235 242 258 260 254 253 253 256 261 269 275 268 265 262 280 305 309 307 298 312 312 309 306 320 299 302 303 300 303 290 216 192 160 156 156 162 166 167 172 176
179 142 27 268 227 295 272 253 241 218 218 205 236 257 280 274 272 295 308 303 302 299 285 307 303 301 293 293 294 296 295 293 293 284 183 169 149 148 154 157 157 158 165 168
182 151 191 267 32 244 236 238 231 226 249 247 273 280 287 276 276 284 290 284 282 279 292 305 293 292 289 285 277 286 287 290 289 271 187 171 160 151 151 154 152 153 156 160
208 171 236 251 218 296 276 37 202 187 278 258 285 322 292 292 299 283 276 265 255 285 295 290 285 284 282 282 288 284 280 287 287 276 190 175 163 153 152 147 145 146 145 147
162 181 207 355 273 250 244 140 109 98 278 63 20 323 306 311 300 298 305 303 293 287 282 282 286 289 286 280 278 274 274 275 279 269 188 169 160 152 145 140 138 137 145 148
131 196 222 242 255 279 260 157 141 323 321 321 300 292 305 291 280 301 301 292 285 281 285 287 284 276 277 280 275 272 269 268 287 228 167 151 151 148 137 134 136 139 139 139
198 200 219 237 237 268 146 50 223 269 312 296 309 301 291 290 297 292 294 295 293 292 290 286 283 281 281 276 271 268 255 259 284 161 142 136 138 131 134 130 133 137 135 124
287 193 215 185 230 241 223 236 270 306 286 305 300 285 285 295 293 292 292 293 293 290 287 288 285 285 286 280 266 269 230 203 252 130 133 133 125 125 131 129 129 127 129 127
281 188 237 329 265 253 280 284 290 263 292 305 278 278 299 294 298 300 294 294 293 290 289 286 283 280 282 285 269 229 192 181 141 129 132 128 128 127 130 132 135 131 129 131
260 278 243 258 276 292 268 276 288 292 294 306 288 299 295 300 293 293 294 293 292 290 288 284 278 276 275 277 238 169 182 142 147 139 141 129 127 125 123 124 139 147 149 155
208 254 247 271 302 290 288 300 286 285 312 313 302 303 305 295 294 295 292 293 291 289 285 279 275 269 273 269 243 211 173 135 120 128 130 130 127 129 130 126 112 135 143 152